STARLINK-36660

Last updated on Sun Mar 15 2026 00:02:07 GMT+0000 (Coordinated Universal Time)

1 67848U 26033AD 26073.58335648 -.01936653 00000+0 -24031-1 0 9992 2 67848 42.9987 241.6777 0001509 274.5612 185.7778 15.62443285 5457

Satellite not in orbit